AAL1604 KMIA-TAPA

Flight info

Callsign AAL1604
Flight time 2h 28m
Altitude 39000
Route KLADA2 BITAC DCT LEPAS A555 DDP DCT COY G633 DANDE Y280 GABAR UG633 ANU
Aircraft B77W/H-SDE1E2E3FGHIJ2J3J4J5M1RWXY/LB1D1

Departure

Time 2026-04-20 20:41
Airport Miami International Airport (KMIA)

Arrival

Time 2026-04-20 23:09
Airport V. C. Bird International Airport (TAPA)
Time Latitude Longitude Altitude Speed Heading
2026-04-20 19:39 25.79849 -80.27097 18 ft 0 kts 288°
2026-04-20 20:19 25.79847 -80.27093 18 ft 2 kts 288°
2026-04-20 20:20 25.79839 -80.27065 18 ft 3 kts 290°
2026-04-20 20:20 25.79831 -80.27039 18 ft 2 kts 294°
2026-04-20 20:20 25.79823 -80.27029 18 ft 1 kts 335°
2026-04-20 20:20 25.79813 -80.27026 18 ft 1 kts 17°
2026-04-20 20:21 25.79801 -80.27036 18 ft 3 kts 52°
2026-04-20 20:21 25.79787 -80.27059 18 ft 2 kts 47°
2026-04-20 20:21 25.79768 -80.27076 18 ft 3 kts 40°
2026-04-20 20:21 25.79748 -80.27097 18 ft 3 kts 44°
2026-04-20 20:22 25.79736 -80.27106 18 ft 0 kts 34°
2026-04-20 20:22 25.79753 -80.27093 18 ft 3 kts 39°
2026-04-20 20:22 25.79774 -80.27072 18 ft 3 kts 41°
2026-04-20 20:22 25.79791 -80.27056 18 ft 0 kts 42°
2026-04-20 20:23 25.79807 -80.27041 18 ft 3 kts 42°
2026-04-20 20:23 25.79828 -80.27023 18 ft 3 kts 32°
2026-04-20 20:23 25.79851 -80.27009 18 ft 3 kts 27°
2026-04-20 20:23 25.79877 -80.26995 18 ft 3 kts 25°
2026-04-20 20:24 25.79883 -80.26992 18 ft 0 kts 25°
2026-04-20 20:31 25.79887 -80.26990 18 ft 2 kts 25°
2026-04-20 20:31 25.79906 -80.26983 18 ft 3 kts
2026-04-20 20:32 25.79964 -80.27000 18 ft 11 kts 322°
2026-04-20 20:32 25.79999 -80.27077 18 ft 11 kts 275°
2026-04-20 20:32 25.80000 -80.27158 18 ft 10 kts 280°
2026-04-20 20:32 25.80054 -80.27216 18 ft 12 kts 304°
2026-04-20 20:33 25.80077 -80.27335 18 ft 20 kts 269°
2026-04-20 20:33 25.80069 -80.27498 18 ft 22 kts 266°
2026-04-20 20:33 25.80063 -80.27660 18 ft 23 kts 267°
2026-04-20 20:33 25.80055 -80.27847 18 ft 22 kts 267°
2026-04-20 20:34 25.80048 -80.28030 18 ft 23 kts 267°
2026-04-20 20:34 25.80040 -80.28204 18 ft 22 kts 268°
2026-04-20 20:34 25.80033 -80.28370 18 ft 20 kts 267°
2026-04-20 20:34 25.80027 -80.28529 18 ft 20 kts 267°
2026-04-20 20:35 25.80021 -80.28680 18 ft 19 kts 267°
2026-04-20 20:35 25.80015 -80.28822 18 ft 17 kts 268°
2026-04-20 20:35 25.80009 -80.28957 18 ft 16 kts 268°
2026-04-20 20:35 25.80004 -80.29079 18 ft 16 kts 268°
2026-04-20 20:36 25.79998 -80.29229 18 ft 20 kts 266°
2026-04-20 20:36 25.79991 -80.29388 18 ft 21 kts 268°
2026-04-20 20:36 25.79985 -80.29538 18 ft 20 kts 267°
2026-04-20 20:36 25.79978 -80.29692 18 ft 19 kts 268°
2026-04-20 20:37 25.79974 -80.29836 18 ft 18 kts 267°
2026-04-20 20:37 25.79972 -80.29933 18 ft 8 kts 277°
2026-04-20 20:37 25.79980 -80.29968 18 ft 0 kts 285°
2026-04-20 20:38 25.79983 -80.29982 18 ft 8 kts 285°
2026-04-20 20:38 25.80000 -80.30052 18 ft 9 kts 287°
2026-04-20 20:39 25.80041 -80.30109 18 ft 8 kts 349°
2026-04-20 20:39 25.80071 -80.30069 18 ft 7 kts 79°
2026-04-20 20:39 25.80073 -80.30045 18 ft 0 kts 87°
2026-04-20 20:40 25.80075 -80.29998 18 ft 18 kts 88°
2026-04-20 20:40 25.80098 -80.29616 18 ft 91 kts 86°
2026-04-20 20:40 25.80134 -80.28609 21 ft 172 kts 87°
2026-04-20 20:40 25.80178 -80.27026 593 ft 207 kts 84°
2026-04-20 20:41 25.80128 -80.25533 2036 ft 192 kts 97°
2026-04-20 20:41 25.79719 -80.24109 2641 ft 204 kts 109°
2026-04-20 20:41 25.79087 -80.22620 3086 ft 223 kts 114°
2026-04-20 20:41 25.78309 -80.21031 3574 ft 240 kts 116°
2026-04-20 20:42 25.77464 -80.19344 4058 ft 258 kts 116°
2026-04-20 20:42 25.76589 -80.17595 4619 ft 271 kts 116°
2026-04-20 20:42 25.75785 -80.15970 5282 ft 276 kts 116°
2026-04-20 20:42 25.74817 -80.14010 6018 ft 283 kts 117°
2026-04-20 20:43 25.73852 -80.12058 6760 ft 288 kts 117°
2026-04-20 20:43 25.73023 -80.10050 7515 ft 291 kts 110°
2026-04-20 20:43 25.72313 -80.07915 8289 ft 293 kts 109°
2026-04-20 20:43 25.71626 -80.05806 9023 ft 296 kts 109°
2026-04-20 20:44 25.70910 -80.03629 9752 ft 300 kts 110°
2026-04-20 20:44 25.70191 -80.01454 10378 ft 309 kts 110°
2026-04-20 20:44 25.69427 -79.99151 10746 ft 326 kts 110°
2026-04-20 20:44 25.68618 -79.96710 11125 ft 344 kts 110°
2026-04-20 20:45 25.67771 -79.94162 11525 ft 361 kts 110°
2026-04-20 20:45 25.66884 -79.91493 11935 ft 378 kts 110°
2026-04-20 20:45 25.65959 -79.88711 12363 ft 395 kts 110°
2026-04-20 20:45 25.64989 -79.85798 12964 ft 406 kts 110°
2026-04-20 20:46 25.64004 -79.82841 13751 ft 412 kts 110°
2026-04-20 20:46 25.63015 -79.79874 14546 ft 419 kts 110°
2026-04-20 20:46 25.62004 -79.76842 15432 ft 425 kts 111°
2026-04-20 20:46 25.60975 -79.73759 16316 ft 432 kts 111°
2026-04-20 20:47 25.59931 -79.70633 17162 ft 438 kts 111°
2026-04-20 20:47 25.58831 -79.67458 17963 ft 445 kts 113°
2026-04-20 20:47 25.57662 -79.64273 18797 ft 451 kts 113°
2026-04-20 20:47 25.56465 -79.61021 19594 ft 458 kts 113°
2026-04-20 20:48 25.55270 -79.57769 20414 ft 463 kts 113°
2026-04-20 20:48 25.54063 -79.54482 21190 ft 469 kts 113°
2026-04-20 20:48 25.52820 -79.51096 21955 ft 474 kts 113°
2026-04-20 20:48 25.51574 -79.47702 22694 ft 480 kts 113°
2026-04-20 20:49 25.50314 -79.44272 23382 ft 486 kts 113°
2026-04-20 20:49 25.49029 -79.40772 24025 ft 493 kts 113°
2026-04-20 20:49 25.47731 -79.37242 24677 ft 500 kts 113°
2026-04-20 20:49 25.46419 -79.33676 25354 ft 505 kts 114°
2026-04-20 20:50 25.45080 -79.30039 25955 ft 512 kts 114°
2026-04-20 20:50 25.43733 -79.26381 26561 ft 518 kts 114°
2026-04-20 20:50 25.42356 -79.22647 27160 ft 525 kts 114°
2026-04-20 20:50 25.40982 -79.18924 27743 ft 531 kts 114°
2026-04-20 20:51 25.39564 -79.15086 28362 ft 536 kts 114°
2026-04-20 20:51 25.38155 -79.11275 28978 ft 541 kts 114°
2026-04-20 20:51 25.36729 -79.07420 29633 ft 544 kts 114°
2026-04-20 20:51 25.35305 -79.03574 30311 ft 547 kts 114°
2026-04-20 20:52 25.33858 -78.99671 30993 ft 548 kts 114°
2026-04-20 20:52 25.32412 -78.95772 31629 ft 550 kts 114°
2026-04-20 20:52 25.30967 -78.91880 32224 ft 551 kts 114°
2026-04-20 20:52 25.29506 -78.87949 32794 ft 552 kts 114°
2026-04-20 20:53 25.28061 -78.84064 33362 ft 553 kts 114°
2026-04-20 20:53 25.26596 -78.80127 34004 ft 553 kts 114°
2026-04-20 20:53 25.25145 -78.76233 34771 ft 550 kts 114°
2026-04-20 20:53 25.23689 -78.72328 35571 ft 545 kts 114°
2026-04-20 20:54 25.22256 -78.68492 36263 ft 542 kts 114°
2026-04-20 20:54 25.20803 -78.64603 36766 ft 542 kts 114°
2026-04-20 20:54 25.19354 -78.60731 37165 ft 543 kts 113°
2026-04-20 20:54 25.17918 -78.56896 37589 ft 544 kts 114°
2026-04-20 20:55 25.16406 -78.53103 38043 ft 542 kts 115°
2026-04-20 20:55 25.14842 -78.49309 38489 ft 540 kts 115°
2026-04-20 20:55 25.13283 -78.45534 38870 ft 540 kts 116°
2026-04-20 20:55 25.11730 -78.41772 39070 ft 542 kts 116°
2026-04-20 20:56 25.08605 -78.34192 39061 ft 542 kts 116°
2026-04-20 20:56 25.05474 -78.26601 39049 ft 544 kts 116°
2026-04-20 20:57 25.02354 -78.19041 39047 ft 542 kts 116°
2026-04-20 20:57 24.99231 -78.11481 39050 ft 542 kts 116°
2026-04-20 20:58 24.96104 -78.03923 39051 ft 543 kts 116°
2026-04-20 20:58 24.92974 -77.96371 39054 ft 543 kts 116°
2026-04-20 20:59 24.89827 -77.88789 39052 ft 543 kts 116°
2026-04-20 20:59 24.86680 -77.81220 39054 ft 542 kts 116°
2026-04-20 21:00 24.83565 -77.73741 39056 ft 542 kts 116°
2026-04-20 21:00 24.80400 -77.66154 39059 ft 543 kts 116°
2026-04-20 21:01 24.77255 -77.58601 39051 ft 542 kts 114°
2026-04-20 21:01 24.75285 -77.50628 39049 ft 542 kts 95°
2026-04-20 21:02 24.74946 -77.42418 39058 ft 539 kts 89°
2026-04-20 21:02 24.74783 -77.34143 39060 ft 539 kts 89°
2026-04-20 21:03 24.74609 -77.25881 39050 ft 540 kts 89°
2026-04-20 21:03 24.74426 -77.17666 39057 ft 541 kts 89°
2026-04-20 21:04 24.74227 -77.09387 39057 ft 540 kts 91°
2026-04-20 21:04 24.72829 -77.01306 39064 ft 544 kts 110°
2026-04-20 21:05 24.69423 -76.93947 39065 ft 539 kts 127°
2026-04-20 21:05 24.65125 -76.87257 39067 ft 538 kts 128°
2026-04-20 21:06 24.60735 -76.80526 39066 ft 537 kts 129°
2026-04-20 21:06 24.56381 -76.73875 39059 ft 537 kts 128°
2026-04-20 21:07 24.52012 -76.67218 39054 ft 536 kts 128°
2026-04-20 21:07 24.47661 -76.60603 39053 ft 537 kts 128°
2026-04-20 21:08 24.43295 -76.53974 39053 ft 535 kts 128°
2026-04-20 21:08 24.38887 -76.47295 39055 ft 535 kts 128°
2026-04-20 21:09 24.34542 -76.40719 39052 ft 534 kts 128°
2026-04-20 21:09 24.30162 -76.34099 39046 ft 533 kts 128°
2026-04-20 21:10 24.25799 -76.27515 39033 ft 535 kts 129°
2026-04-20 21:10 24.21436 -76.20940 39035 ft 536 kts 129°
2026-04-20 21:11 24.17052 -76.14342 39035 ft 534 kts 129°
2026-04-20 21:11 24.12679 -76.07770 39032 ft 535 kts 129°
2026-04-20 21:12 24.08333 -76.01247 39032 ft 534 kts 129°
2026-04-20 21:12 24.03929 -75.94647 39033 ft 535 kts 129°
2026-04-20 21:13 23.99578 -75.88133 39036 ft 533 kts 128°
2026-04-20 21:13 23.95198 -75.81584 39038 ft 534 kts 129°
2026-04-20 21:14 23.90811 -75.75035 39033 ft 531 kts 128°
2026-04-20 21:14 23.86472 -75.68566 39035 ft 532 kts 129°
2026-04-20 21:15 23.82097 -75.62051 39048 ft 531 kts 128°
2026-04-20 21:15 23.77730 -75.55557 39052 ft 529 kts 128°
2026-04-20 21:16 23.73369 -75.49081 39048 ft 531 kts 128°
2026-04-20 21:16 23.68978 -75.42567 39052 ft 530 kts 128°
2026-04-20 21:17 23.64609 -75.36095 39051 ft 530 kts 128°
2026-04-20 21:17 23.60270 -75.29675 39034 ft 527 kts 129°
2026-04-20 21:18 23.56283 -75.22912 39039 ft 530 kts 120°
2026-04-20 21:18 23.52767 -75.15875 39035 ft 528 kts 120°
2026-04-20 21:19 23.49273 -75.08884 39036 ft 530 kts 120°
2026-04-20 21:20 23.43985 -74.98334 39040 ft 530 kts 120°
2026-04-20 21:20 23.40447 -74.91296 39042 ft 530 kts 119°
2026-04-20 21:21 23.36900 -74.84251 39038 ft 530 kts 119°
2026-04-20 21:21 23.33373 -74.77254 39038 ft 529 kts 120°
2026-04-20 21:22 23.29824 -74.70228 39039 ft 530 kts 120°
2026-04-20 21:22 23.26282 -74.63223 39042 ft 530 kts 120°
2026-04-20 21:23 23.22725 -74.56200 39039 ft 528 kts 120°
2026-04-20 21:23 23.19177 -74.49204 39040 ft 530 kts 119°
2026-04-20 21:24 23.15643 -74.42245 39042 ft 528 kts 119°
2026-04-20 21:24 23.12070 -74.35246 39042 ft 530 kts 120°
2026-04-20 21:25 23.08493 -74.28310 39027 ft 528 kts 120°
2026-04-20 21:25 23.04897 -74.21346 39029 ft 529 kts 120°
2026-04-20 21:26 23.01310 -74.14406 39029 ft 528 kts 120°
2026-04-20 21:26 22.97695 -74.07421 39027 ft 528 kts 120°
2026-04-20 21:27 22.94107 -74.00496 39032 ft 527 kts 120°
2026-04-20 21:27 22.90495 -73.93534 39030 ft 529 kts 120°
2026-04-20 21:28 22.86913 -73.86639 39024 ft 528 kts 120°
2026-04-20 21:28 22.83302 -73.79698 39012 ft 527 kts 120°
2026-04-20 21:29 22.79693 -73.72772 39012 ft 528 kts 120°
2026-04-20 21:29 22.76090 -73.65865 39007 ft 528 kts 120°
2026-04-20 21:30 22.72473 -73.58940 39004 ft 528 kts 120°
2026-04-20 21:30 22.68868 -73.52048 39009 ft 529 kts 121°
2026-04-20 21:31 22.65241 -73.45123 39010 ft 527 kts 121°
2026-04-20 21:31 22.61618 -73.38215 39009 ft 528 kts 121°
2026-04-20 21:32 22.58004 -73.31335 38993 ft 527 kts 121°
2026-04-20 21:32 22.54371 -73.24426 38999 ft 529 kts 121°
2026-04-20 21:33 22.50748 -73.17545 38993 ft 527 kts 121°
2026-04-20 21:33 22.47116 -73.10658 38994 ft 529 kts 121°
2026-04-20 21:34 22.43483 -73.03777 38994 ft 527 kts 121°
2026-04-20 21:34 22.39825 -72.96859 38996 ft 528 kts 121°
2026-04-20 21:35 22.36195 -72.90002 38997 ft 528 kts 121°
2026-04-20 21:35 22.32540 -72.83109 38998 ft 528 kts 121°
2026-04-20 21:36 22.28901 -72.76253 38999 ft 528 kts 121°
2026-04-20 21:36 22.25300 -72.69479 38993 ft 528 kts 121°
2026-04-20 21:37 22.21735 -72.62514 38998 ft 530 kts 118°
2026-04-20 21:37 22.18383 -72.55489 38995 ft 529 kts 118°
2026-04-20 21:38 22.15001 -72.48433 39001 ft 530 kts 118°
2026-04-20 21:38 22.11570 -72.41426 39006 ft 528 kts 120°
2026-04-20 21:39 22.07946 -72.34496 38994 ft 528 kts 121°
2026-04-20 21:39 22.04353 -72.27634 38987 ft 526 kts 120°
2026-04-20 21:40 22.00738 -72.20729 38983 ft 528 kts 121°
2026-04-20 21:40 21.97138 -72.13856 38990 ft 529 kts 120°
2026-04-20 21:41 21.93527 -72.06968 38987 ft 528 kts 120°
2026-04-20 21:41 21.89937 -72.00128 38991 ft 527 kts 120°
2026-04-20 21:42 21.86292 -71.93188 38988 ft 528 kts 120°
2026-04-20 21:42 21.82669 -71.86301 38991 ft 527 kts 120°
2026-04-20 21:43 21.79069 -71.79467 39002 ft 527 kts 120°
2026-04-20 21:43 21.75453 -71.72610 39005 ft 526 kts 120°
2026-04-20 21:44 21.71848 -71.65781 39004 ft 525 kts 120°
2026-04-20 21:44 21.68251 -71.58978 39002 ft 524 kts 120°
2026-04-20 21:45 21.64642 -71.52159 39009 ft 525 kts 120°
2026-04-20 21:45 21.61048 -71.45379 39009 ft 521 kts 120°
2026-04-20 21:46 21.57455 -71.38609 39006 ft 523 kts 120°
2026-04-20 21:46 21.53856 -71.31835 38994 ft 521 kts 120°
2026-04-20 21:47 21.50281 -71.25114 38999 ft 522 kts 120°
2026-04-20 21:47 21.46684 -71.18362 38996 ft 521 kts 120°
2026-04-20 21:48 21.43072 -71.11641 38995 ft 521 kts 123°
2026-04-20 21:48 21.39111 -71.05106 38998 ft 520 kts 124°
2026-04-20 21:49 21.35152 -70.98617 38997 ft 521 kts 124°
2026-04-20 21:49 21.31198 -70.92117 38996 ft 521 kts 124°
2026-04-20 21:50 21.27253 -70.85622 38996 ft 520 kts 123°
2026-04-20 21:50 21.23294 -70.79105 38995 ft 520 kts 123°
2026-04-20 21:51 21.19332 -70.72587 38998 ft 520 kts 124°
2026-04-20 21:51 21.15407 -70.66135 38997 ft 518 kts 124°
2026-04-20 21:52 21.11458 -70.59655 38999 ft 519 kts 124°
2026-04-20 21:52 21.07523 -70.53211 38999 ft 517 kts 124°
2026-04-20 21:53 21.03597 -70.46787 39003 ft 517 kts 124°
2026-04-20 21:53 20.99678 -70.40382 39011 ft 517 kts 124°
2026-04-20 21:54 20.95736 -70.33947 38998 ft 517 kts 124°
2026-04-20 21:54 20.91786 -70.27504 38996 ft 517 kts 124°
2026-04-20 21:55 20.87836 -70.21069 38990 ft 517 kts 124°
2026-04-20 21:55 20.83878 -70.14622 38995 ft 518 kts 124°
2026-04-20 21:56 20.79950 -70.08232 38998 ft 517 kts 124°
2026-04-20 21:56 20.75991 -70.01800 38999 ft 516 kts 124°
2026-04-20 21:57 20.72048 -69.95400 39000 ft 518 kts 124°
2026-04-20 21:57 20.68084 -69.88972 39000 ft 516 kts 124°
2026-04-20 21:58 20.64148 -69.82600 39000 ft 516 kts 124°
2026-04-20 21:58 20.60177 -69.76176 39001 ft 515 kts 124°
2026-04-20 21:59 20.56236 -69.69823 39002 ft 518 kts 124°
2026-04-20 21:59 20.52244 -69.63412 39002 ft 515 kts 124°
2026-04-20 22:00 20.48289 -69.57104 39004 ft 516 kts 124°
2026-04-20 22:00 20.44287 -69.50738 39003 ft 515 kts 124°
2026-04-20 22:01 20.40300 -69.44402 39004 ft 514 kts 124°
2026-04-20 22:01 20.36328 -69.38094 39009 ft 513 kts 124°
2026-04-20 22:02 20.32336 -69.31761 38998 ft 513 kts 125°
2026-04-20 22:02 20.28331 -69.25414 38997 ft 514 kts 124°
2026-04-20 22:03 20.24373 -69.19150 39005 ft 513 kts 124°
2026-04-20 22:03 20.20366 -69.12813 39004 ft 514 kts 124°
2026-04-20 22:04 20.16385 -69.06525 39007 ft 513 kts 124°
2026-04-20 22:04 20.12421 -69.00269 39008 ft 512 kts 124°
2026-04-20 22:05 20.08418 -68.93959 39012 ft 513 kts 124°
2026-04-20 22:05 20.04418 -68.87661 39012 ft 512 kts 124°
2026-04-20 22:06 20.00425 -68.81380 39013 ft 513 kts 124°
2026-04-20 22:06 19.96467 -68.75083 39013 ft 512 kts 124°
2026-04-20 22:07 19.92533 -68.68816 39013 ft 512 kts 124°
2026-04-20 22:07 19.88559 -68.62494 39000 ft 513 kts 124°
2026-04-20 22:08 19.84600 -68.56203 38999 ft 512 kts 124°
2026-04-20 22:08 19.80636 -68.49912 39000 ft 514 kts 124°
2026-04-20 22:09 19.76663 -68.43615 38998 ft 514 kts 124°
2026-04-20 22:09 19.72691 -68.37325 39001 ft 513 kts 124°
2026-04-20 22:10 19.68724 -68.31051 38992 ft 513 kts 124°
2026-04-20 22:10 19.64763 -68.24793 38995 ft 512 kts 124°
2026-04-20 22:11 19.60774 -68.18496 38994 ft 513 kts 124°
2026-04-20 22:11 19.56792 -68.12215 38996 ft 513 kts 124°
2026-04-20 22:12 19.52815 -68.05946 38996 ft 512 kts 124°
2026-04-20 22:12 19.48832 -67.99679 38997 ft 512 kts 124°
2026-04-20 22:13 19.44850 -67.93418 38997 ft 513 kts 124°
2026-04-20 22:13 19.40857 -67.87149 38998 ft 513 kts 124°
2026-04-20 22:14 19.36879 -67.80910 38999 ft 512 kts 124°
2026-04-20 22:14 19.32882 -67.74645 38997 ft 513 kts 124°
2026-04-20 22:15 19.28884 -67.68387 38996 ft 513 kts 124°
2026-04-20 22:15 19.24894 -67.62148 38993 ft 512 kts 124°
2026-04-20 22:16 19.20887 -67.55884 38994 ft 513 kts 124°
2026-04-20 22:16 19.16898 -67.49655 38997 ft 514 kts 124°
2026-04-20 22:17 19.12899 -67.43416 38995 ft 512 kts 124°
2026-04-20 22:17 19.08887 -67.37164 38997 ft 512 kts 125°
2026-04-20 22:18 19.04911 -67.30975 38987 ft 512 kts 125°
2026-04-20 22:18 19.00899 -67.24735 38988 ft 511 kts 125°
2026-04-20 22:19 18.96903 -67.18526 38988 ft 512 kts 125°
2026-04-20 22:19 18.92870 -67.12267 38989 ft 513 kts 125°
2026-04-20 22:20 18.88865 -67.06057 38985 ft 511 kts 125°
2026-04-20 22:20 18.84897 -66.99909 38983 ft 511 kts 125°
2026-04-20 22:21 18.80874 -66.93684 38986 ft 512 kts 125°
2026-04-20 22:21 18.76873 -66.87498 38995 ft 512 kts 125°
2026-04-20 22:22 18.72186 -66.80260 38993 ft 511 kts 125°
2026-04-20 22:22 18.68826 -66.75076 38991 ft 512 kts 126°
2026-04-20 22:23 18.64807 -66.68881 38989 ft 512 kts 125°
2026-04-20 22:23 18.60783 -66.62685 38994 ft 513 kts 125°
2026-04-20 22:24 18.56752 -66.56484 38993 ft 512 kts 126°
2026-04-20 22:24 18.52678 -66.50222 38999 ft 512 kts 126°
2026-04-20 22:25 18.48647 -66.44033 38998 ft 513 kts 126°
2026-04-20 22:25 18.45179 -66.37401 39014 ft 515 kts 114°
2026-04-20 22:26 18.42269 -66.30508 39012 ft 514 kts 114°
2026-04-20 22:26 18.39340 -66.23571 39027 ft 515 kts 114°
2026-04-20 22:27 18.34956 -66.13221 39027 ft 514 kts 114°
2026-04-20 22:27 18.32003 -66.06265 39027 ft 514 kts 114°
2026-04-20 22:28 18.29081 -65.99390 39020 ft 513 kts 115°
2026-04-20 22:28 18.26161 -65.92531 39023 ft 514 kts 114°
2026-04-20 22:29 18.23243 -65.85685 39030 ft 514 kts 114°
2026-04-20 22:29 18.20275 -65.78731 39035 ft 514 kts 115°
2026-04-20 22:30 18.17346 -65.71875 39037 ft 516 kts 114°
2026-04-20 22:30 18.14397 -65.64982 39029 ft 515 kts 114°
2026-04-20 22:31 18.11447 -65.58095 39022 ft 514 kts 115°
2026-04-20 22:31 18.08516 -65.51258 39016 ft 514 kts 115°
2026-04-20 22:32 18.05580 -65.44418 39016 ft 515 kts 114°
2026-04-20 22:32 18.02633 -65.37561 39018 ft 514 kts 115°
2026-04-20 22:33 17.99699 -65.30743 39006 ft 514 kts 115°
2026-04-20 22:33 17.96742 -65.23877 39003 ft 514 kts 115°
2026-04-20 22:34 17.93793 -65.17040 39006 ft 514 kts 115°
2026-04-20 22:34 17.90844 -65.10208 38765 ft 516 kts 115°
2026-04-20 22:35 17.89360 -65.06774 38496 ft 515 kts 115°
2026-04-20 22:35 17.87881 -65.03354 38202 ft 515 kts 115°
2026-04-20 22:35 17.86402 -64.99935 37906 ft 514 kts 115°
2026-04-20 22:35 17.84927 -64.96527 37584 ft 514 kts 115°
2026-04-20 22:36 17.83454 -64.93126 37242 ft 515 kts 115°
2026-04-20 22:36 17.81981 -64.89727 36898 ft 515 kts 114°
2026-04-20 22:36 17.80487 -64.86282 36547 ft 515 kts 115°
2026-04-20 22:36 17.79014 -64.82886 36203 ft 514 kts 114°
2026-04-20 22:37 17.77518 -64.79440 35860 ft 515 kts 115°
2026-04-20 22:37 17.76050 -64.76060 35519 ft 515 kts 114°
2026-04-20 22:37 17.74549 -64.72607 35179 ft 515 kts 114°
2026-04-20 22:37 17.73284 -64.69104 34835 ft 516 kts 105°
2026-04-20 22:38 17.72406 -64.65453 34555 ft 517 kts 102°
2026-04-20 22:38 17.71590 -64.61735 34270 ft 517 kts 102°
2026-04-20 22:38 17.70789 -64.58066 33996 ft 518 kts 102°
2026-04-20 22:38 17.69982 -64.54382 33725 ft 519 kts 102°
2026-04-20 22:39 17.69171 -64.50685 33450 ft 518 kts 102°
2026-04-20 22:39 17.68348 -64.46944 33175 ft 520 kts 102°
2026-04-20 22:39 17.67537 -64.43262 32914 ft 519 kts 102°
2026-04-20 22:39 17.66725 -64.39582 32662 ft 521 kts 102°
2026-04-20 22:40 17.65910 -64.35896 32410 ft 520 kts 102°
2026-04-20 22:40 17.65098 -64.32221 32148 ft 522 kts 102°
2026-04-20 22:40 17.64279 -64.28522 31817 ft 523 kts 102°
2026-04-20 22:40 17.63443 -64.24752 31418 ft 523 kts 102°
2026-04-20 22:41 17.62621 -64.21049 31018 ft 523 kts 102°
2026-04-20 22:41 17.61802 -64.17362 30625 ft 523 kts 102°
2026-04-20 22:41 17.60982 -64.13671 30236 ft 524 kts 102°
2026-04-20 22:41 17.60149 -64.09933 29838 ft 522 kts 102°
2026-04-20 22:42 17.59330 -64.06255 29446 ft 518 kts 101°
2026-04-20 22:42 17.58510 -64.02583 29065 ft 514 kts 101°
2026-04-20 22:42 17.57707 -63.98984 28709 ft 511 kts 101°
2026-04-20 22:42 17.56901 -63.95377 28322 ft 509 kts 101°
2026-04-20 22:43 17.56100 -63.91794 27936 ft 505 kts 101°
2026-04-20 22:43 17.55299 -63.88214 27550 ft 502 kts 102°
2026-04-20 22:43 17.54506 -63.84676 27165 ft 498 kts 101°
2026-04-20 22:43 17.53719 -63.81168 26785 ft 495 kts 102°
2026-04-20 22:44 17.52932 -63.77658 26444 ft 492 kts 101°
2026-04-20 22:44 17.52152 -63.74186 26115 ft 490 kts 101°
2026-04-20 22:44 17.51381 -63.70755 25784 ft 486 kts 101°
2026-04-20 22:44 17.50606 -63.67309 25450 ft 484 kts 102°
2026-04-20 22:45 17.49833 -63.63879 25125 ft 481 kts 101°
2026-04-20 22:45 17.49073 -63.60504 24802 ft 479 kts 102°
2026-04-20 22:45 17.48310 -63.57124 24465 ft 476 kts 102°
2026-04-20 22:45 17.47553 -63.53769 24056 ft 474 kts 102°
2026-04-20 22:46 17.46795 -63.50411 23604 ft 470 kts 102°
2026-04-20 22:46 17.46051 -63.47120 23167 ft 465 kts 102°
2026-04-20 22:46 17.45305 -63.43828 22727 ft 463 kts 102°
2026-04-20 22:46 17.44572 -63.40591 22296 ft 459 kts 102°
2026-04-20 22:47 17.43836 -63.37341 21888 ft 455 kts 102°
2026-04-20 22:47 17.43109 -63.34135 21483 ft 452 kts 102°
2026-04-20 22:47 17.42388 -63.30959 21070 ft 448 kts 102°
2026-04-20 22:47 17.41664 -63.27775 20655 ft 444 kts 102°
2026-04-20 22:48 17.40961 -63.24681 20246 ft 440 kts 101°
2026-04-20 22:48 17.40258 -63.21595 19833 ft 437 kts 101°
2026-04-20 22:48 17.39550 -63.18486 19415 ft 433 kts 101°
2026-04-20 22:48 17.38860 -63.15456 19004 ft 430 kts 101°
2026-04-20 22:49 17.38170 -63.12433 18581 ft 423 kts 101°
2026-04-20 22:49 17.37500 -63.09497 18172 ft 414 kts 101°
2026-04-20 22:49 17.36834 -63.06582 17748 ft 406 kts 101°
2026-04-20 22:49 17.36176 -63.03706 17332 ft 399 kts 101°
2026-04-20 22:50 17.35536 -63.00905 16915 ft 392 kts 101°
2026-04-20 22:50 17.34907 -62.98145 16490 ft 385 kts 101°
2026-04-20 22:50 17.34300 -62.95464 16080 ft 379 kts 101°
2026-04-20 22:50 17.33697 -62.92802 15658 ft 374 kts 101°
2026-04-20 22:51 17.33099 -62.90161 15240 ft 368 kts 101°
2026-04-20 22:51 17.32513 -62.87578 14866 ft 361 kts 101°
2026-04-20 22:51 17.31938 -62.85044 14494 ft 357 kts 101°
2026-04-20 22:51 17.31370 -62.82546 14130 ft 355 kts 102°
2026-04-20 22:52 17.30800 -62.80035 13757 ft 354 kts 102°
2026-04-20 22:52 17.30229 -62.77526 13376 ft 351 kts 102°
2026-04-20 22:52 17.29665 -62.75048 12996 ft 347 kts 102°
2026-04-20 22:52 17.29142 -62.72569 12619 ft 345 kts 99°
2026-04-20 22:53 17.28723 -62.70121 12241 ft 344 kts 98°
2026-04-20 22:53 17.28304 -62.67645 11854 ft 341 kts 98°
2026-04-20 22:53 17.27887 -62.65237 11474 ft 338 kts 99°
2026-04-20 22:53 17.27465 -62.62835 11097 ft 335 kts 98°
2026-04-20 22:54 17.27041 -62.60435 10717 ft 333 kts 99°
2026-04-20 22:54 17.26619 -62.58062 10265 ft 327 kts 99°
2026-04-20 22:54 17.26215 -62.55790 10084 ft 305 kts 98°
2026-04-20 22:54 17.25834 -62.53654 10004 ft 292 kts 98°
2026-04-20 22:55 17.25473 -62.51619 9841 ft 286 kts 99°
2026-04-20 22:55 17.25111 -62.49585 9455 ft 280 kts 98°
2026-04-20 22:55 17.24760 -62.47620 9096 ft 274 kts 98°
2026-04-20 22:55 17.24411 -62.45657 8750 ft 273 kts 99°
2026-04-20 22:56 17.24061 -62.43695 8433 ft 275 kts 99°
2026-04-20 22:56 17.23712 -62.41740 8069 ft 274 kts 99°
2026-04-20 22:56 17.23364 -62.39796 7727 ft 271 kts 99°
2026-04-20 22:56 17.23022 -62.37881 7369 ft 268 kts 99°
2026-04-20 22:57 17.22680 -62.35971 7011 ft 265 kts 99°
2026-04-20 22:57 17.22344 -62.34094 6657 ft 262 kts 99°
2026-04-20 22:57 17.22016 -62.32259 6345 ft 255 kts 99°
2026-04-20 22:57 17.21690 -62.30445 6054 ft 247 kts 99°
2026-04-20 22:58 17.21380 -62.28715 5775 ft 241 kts 99°
2026-04-20 22:58 17.21077 -62.27021 5493 ft 235 kts 99°
2026-04-20 22:58 17.20779 -62.25366 5209 ft 230 kts 99°
2026-04-20 22:58 17.20485 -62.23729 4968 ft 224 kts 101°
2026-04-20 22:59 17.19917 -62.22218 4797 ft 225 kts 118°
2026-04-20 22:59 17.19077 -62.20844 4650 ft 225 kts 121°
2026-04-20 22:59 17.18218 -62.19485 4482 ft 223 kts 121°
2026-04-20 22:59 17.17357 -62.18134 4312 ft 223 kts 121°
2026-04-20 23:00 17.16501 -62.16788 4148 ft 222 kts 121°
2026-04-20 23:00 17.15646 -62.15446 3957 ft 222 kts 120°
2026-04-20 23:00 17.14783 -62.14090 3743 ft 221 kts 121°
2026-04-20 23:00 17.13939 -62.12765 3528 ft 219 kts 120°
2026-04-20 23:01 17.13090 -62.11433 3314 ft 218 kts 120°
2026-04-20 23:01 17.12263 -62.10136 3166 ft 212 kts 120°
2026-04-20 23:01 17.11456 -62.08870 3066 ft 203 kts 120°
2026-04-20 23:01 17.10688 -62.07666 2970 ft 195 kts 120°
2026-04-20 23:02 17.09938 -62.06486 2875 ft 195 kts 120°
2026-04-20 23:02 17.09185 -62.05304 2780 ft 194 kts 120°
2026-04-20 23:02 17.08443 -62.04142 2669 ft 189 kts 120°
2026-04-20 23:02 17.07727 -62.03019 2551 ft 181 kts 120°
2026-04-20 23:03 17.07044 -62.01950 2486 ft 171 kts 120°
2026-04-20 23:03 17.06377 -62.00904 2491 ft 173 kts 120°
2026-04-20 23:03 17.05710 -61.99858 2492 ft 172 kts 119°
2026-04-20 23:03 17.05049 -61.98821 2491 ft 172 kts 119°
2026-04-20 23:04 17.04427 -61.97737 2488 ft 171 kts 109°
2026-04-20 23:04 17.04153 -61.96538 2485 ft 170 kts 91°
2026-04-20 23:04 17.04280 -61.95329 2487 ft 168 kts 73°
2026-04-20 23:04 17.04775 -61.94235 2484 ft 166 kts 59°
2026-04-20 23:05 17.05408 -61.93207 2435 ft 170 kts 59°
2026-04-20 23:05 17.06036 -61.92157 2260 ft 168 kts 60°
2026-04-20 23:05 17.06624 -61.91169 2124 ft 153 kts 60°
2026-04-20 23:05 17.07175 -61.90234 2024 ft 147 kts 60°
2026-04-20 23:06 17.07715 -61.89327 1929 ft 145 kts 60°
2026-04-20 23:06 17.08246 -61.88428 1815 ft 144 kts 59°
2026-04-20 23:06 17.08760 -61.87564 1707 ft 130 kts 60°
2026-04-20 23:06 17.09232 -61.86764 1556 ft 130 kts 59°
2026-04-20 23:07 17.09708 -61.85963 1377 ft 131 kts 60°
2026-04-20 23:07 17.10183 -61.85157 1191 ft 131 kts 59°
2026-04-20 23:07 17.10669 -61.84351 1003 ft 129 kts 59°
2026-04-20 23:07 17.11142 -61.83550 722 ft 134 kts 62°
2026-04-20 23:08 17.11625 -61.82711 600 ft 133 kts 59°
2026-04-20 23:08 17.12127 -61.81885 443 ft 134 kts 61°
2026-04-20 23:08 17.12619 -61.81043 267 ft 135 kts 60°
2026-04-20 23:08 17.13111 -61.80204 103 ft 134 kts 57°
2026-04-20 23:09 17.13576 -61.79427 67 ft 111 kts 58°
2026-04-20 23:09 17.13912 -61.78862 54 ft 58 kts 58°
2026-04-20 23:09 17.14043 -61.78668 48 ft 14 kts 32°
2026-04-20 23:09 17.14098 -61.78701 48 ft 7 kts 275°
2026-04-20 23:10 17.14102 -61.78747 50 ft 6 kts 275°
2026-04-20 23:10 17.14106 -61.78787 51 ft 4 kts 276°
2026-04-20 23:10 17.14109 -61.78821 51 ft 4 kts 271°
2026-04-20 23:10 17.14108 -61.78846 52 ft 1 kts 255°
2026-04-20 23:11 17.14098 -61.78872 53 ft 4 kts 246°
2026-04-20 23:11 17.14086 -61.78896 54 ft 2 kts 246°
2026-04-20 23:11 17.14078 -61.78930 55 ft 6 kts 272°
2026-04-20 23:11 17.14105 -61.78957 56 ft 5 kts 325°
2026-04-20 23:12 17.14122 -61.78969 57 ft 0 kts 328°
2026-04-20 23:12 17.14126 -61.78972 57 ft 0 kts 328°
2026-04-20 23:12 17.14127 -61.78972 57 ft 0 kts 328°